Flag for India Weather past 2 weeks in Karaikudi, Tamil Nadu, India

Now
95 °F

Broken clouds.


Feels Like: 103 °F
Forecast: 77 / 92 °F
Wind: 2 mph from North

Location: Tiruchchirapalli

Current Time: Sep 3, 2015 at 4:47:51 PM

Latest Report: Sep 3, 2015 at 3:40 PM


Visibility: 4 mi

Pressure: 29.71 "Hg

Humidity: 47%

Dew point: 72 °F

Location of KaraikudiLocation

Historic Weather in Karaikudi — Graph

°F

Karaikudi temperature yesterday

Maximum temperature yesterday: 99 °F (at 3:40 PM)
Minimum temperature yesterday: 79 °F (at 12:40 AM)
Average temperature yesterday: 87 °F

Past Weeks' High & Low Weather Summary

 TemperatureHumidityPressure
High102 °F (Aug 30, 3:40 PM)94% (Aug 21, 11:40 PM)29.89 "Hg (Aug 21, 11:40 PM)
Low77 °F (Aug 21, 11:40 PM)33% (Aug 28, 2:40 PM)29.62 "Hg (Aug 27, 4:10 PM)
Average87 °F63%29.76 "Hg
* Reported Aug 19 3:40 PM — Sep 3 3:40 PM, Karaikudi, Weather by CustomWeather, © 2015

Note: Actual official high and low records may vary slightly from our data, if they occured in-between our weather recording intervals... More about our weather records

Advertising

Karaikudi weather history for previous 24 hours

 ConditionsComfort  
Time TempWeatherWind HumidityBarometerVisibility
3:40 PM
Thu, Sep 3
95 °FBroken clouds.2 mph47%29.71 "Hg4 mi
3:10 PM95 °FBroken clouds.2 mph50%29.71 "Hg4 mi
2:40 PM93 °FBroken clouds.2 mph53%29.71 "Hg4 mi
2:10 PM93 °FBroken clouds.2 mph53%29.74 "Hg4 mi
1:40 PM93 °FBroken clouds.No wind56%29.74 "Hg4 mi
1:10 PM91 °FBroken clouds.2 mph63%29.77 "Hg4 mi
12:40 PM91 °FBroken clouds.No wind59%29.80 "Hg4 mi
11:40 AM90 °FBroken clouds.2 mph63%29.80 "Hg4 mi
11:10 AM88 °FBroken clouds.3 mph62%29.80 "Hg4 mi
10:40 AM88 °FBroken clouds.2 mph66%29.83 "Hg4 mi
10:10 AM86 °FMore clouds than sun.3 mph66%29.83 "Hg4 mi
8:40 AM82 °FFog.No wind84%29.80 "Hg2 mi
7:40 AM81 °FFog.No wind84%29.80 "Hg2 mi
7:10 AM81 °FFog.2 mph84%29.77 "Hg2 mi
6:10 AM79 °FPartly cloudy.No wind89%29.74 "Hg2 mi
5:40 AM79 °FPassing clouds.No wind89%29.74 "Hg2 mi
4:40 AM77 °FPassing clouds.No wind94%29.74 "Hg2 mi
3:40 AM77 °FPassing clouds.No wind94%29.74 "Hg2 mi
3:10 AM77 °FPassing clouds.No wind94%29.74 "Hg2 mi
2:40 AM77 °FPassing clouds.No wind94%29.74 "Hg2 mi
2:10 AM79 °FPassing clouds.No wind84%29.74 "Hg2 mi
1:40 AM79 °FPassing clouds.No wind84%29.74 "Hg2 mi
1:10 AM79 °FPartly cloudy.2 mph89%29.74 "Hg2 mi
11:40 PM
Wed, Sep 2
79 °FThunderstorms. Mostly cloudy.5 mph89%29.80 "Hg2 mi
10:40 PM84 °FThunderstorms. Partly cloudy.5 mph70%29.80 "Hg2 mi
9:40 PM86 °FPassing clouds.6 mph66%29.74 "Hg4 mi
9:10 PM86 °FPassing clouds.7 mph66%29.74 "Hg4 mi
8:40 PM88 °FPassing clouds.9 mph62%29.71 "Hg4 mi
8:10 PM90 °FPassing clouds.6 mph67%29.71 "Hg4 mi
7:40 PM90 °FPassing clouds.2 mph67%29.68 "Hg4 mi
7:10 PM90 °FPassing clouds.2 mph67%29.68 "Hg4 mi
6:40 PM91 °FScattered clouds.2 mph63%29.68 "Hg4 mi
6:10 PM93 °FScattered clouds.5 mph53%29.65 "Hg4 mi
5:40 PM95 °FScattered clouds.9 mph50%29.65 "Hg4 mi
5:10 PM97 °FScattered clouds.5 mph47%29.65 "Hg4 mi
4:40 PM97 °FScattered clouds.2 mph47%29.65 "Hg5 mi
4:10 PM99 °FPassing clouds.2 mph44%29.65 "Hg5 mi
Weather by CustomWeather, © 2015

See weather overviewHow to use our weather pages